Regional Weather Roundup
Issued by NWS

Home | Current Version | Previous Version | Text Only | Print | Product List | Glossary On
Versions: 1 2 3 4 5 6 7 8 9 10 11 12 13 14 15 16 17 18 19 20 21 22 23 24 25 26 27 28 29 30 31 32 33 34 35 36 37 38 39 40 41 42 43 44 45 46 47 48 49 50
000
ASUS43 KDTX 122001
RWRMI
MICHIGAN HOURLY REGIONAL WEATHER ROUNDUP
NATIONAL WEATHER SERVICE DETROIT/PONTIAC MI
300 PM EST TUE DEC 12 2017

NOTE: "FAIR" INDICATES FEW OR NO CLOUDS BELOW 12,000 FEET WITH NO
SIGNIFICANT WEATHER AND/OR OBSTRUCTION TO VISIBILITY.

MIZ047>049-052>055-059>063-066>070-074>076-081>083-122100-
SOUTHEAST LOWER MICHIGAN

CITY           SKY/WX    TMP DP  RH WIND       PRES   REMARKS
ADRIAN         PTSUNNY   20   2  45 NW20G31   29.88  WCI   4
ALMA           CLOUDY    20   3  49 NW15G22   29.88S WCI   6
ANN ARBOR      CLOUDY    18   3  52 NW17      29.85R WCI   3
BAD AXE        CLOUDY    14   1  55 NW21G28   29.80R WCI  -3
CARO           PTSUNNY   16   2  53 NW16G28   29.82S WCI   1
DETROIT CITY   PTSUNNY   18   2  49 NW18G25   29.84R WCI   2
DETROIT        PTSUNNY   20   4  50 NW18G33   29.86R WCI   5
FLINT          PTSUNNY   17   4  56 NW21G31   29.84S WCI   0
GROSSE ILE     CLOUDY    19   4  51 NW20G26   29.84S WCI   4
HILLSDALE      CLOUDY    19   5  53 NW20G25   29.84S WCI   4
HOWELL         CLOUDY    17   5  58 NW14G21   29.84S WCI   3

CITY           SKY/WX    TMP DP  RH WIND       PRES   REMARKS
JACKSON        CLOUDY    19   5  54 NW13G21   29.86S WCI   6
LAMBERTVILLE   MOSUNNY   20   8  57 NW8G18    29.88S WCI  11
LANSING        PTSUNNY   19  10  68 W17G26    29.88S WCI   4
LAPEER         PTSUNNY   17  -1  46 NW15G29   29.81S WCI   2
MASON          LGT SNOW  18  10  69 NW16      29.87R WCI   4
MONROE         CLOUDY    20   4  48 NW12G18   29.86R WCI   8
MT. CLEMENS    MOSUNNY   19   1  45 NW22G30   29.80S WCI   3
PONTIAC        CLOUDY    16   5  62 NW22G29   29.80S WCI  -2
PORT HOPE        N/A     16   4  59 NW24G39   29.77R WCI  -2
PORT HURON     CLOUDY    16   3  57 NW20G25   29.81R WCI  -1
TRI CITIES     SUNNY     16   2  54 NW18G26   29.86R WCI   0
MIDLAND        FAIR      19   2  49 NW14G22   29.86R WCI   5
TROY           CLOUDY    18   5  55 W17G29    29.85S HAZE    WCI   3
SAGINAW HB     PTSUNNY   19   5  53 NW21G26   29.85S WCI   3
$$
MIZ043>046-050>051-056>058-064>065-071>073-077>080-122100-
SOUTHWEST LOWER MICHIGAN

CITY           SKY/WX    TMP DP  RH WIND       PRES   REMARKS
BATTLE CREEK   SUNNY     20   4  50 NW17G26   29.89S WCI   5
BENTON HARBOR  LGT SNOW  23  11  60 NW16G25   29.97F WCI  10
BIG RAPIDS     PTSUNNY   16  10  77 NW9       29.87S WCI   5
COLDWATER      CLOUDY    21   5  51 NW16G22   29.89S WCI   7
FREMONT        PTSUNNY   18   6  58 NW13G22   29.92S WCI   5
HOLLAND        FLURRIES  19  12  74 N6        29.95F WCI  11
GRAND RAPIDS   PTSUNNY   21   8  57 NW14G24   29.91S WCI   8
IONIA          FLURRIES  19   8  62 NW14G23   29.88F WCI   6
KALAMAZOO      MOSUNNY   20   9  62 NW22G31   29.92S WCI   3
LUDINGTON      LGT SNOW  18   7  60 NW12G23   29.94R WCI   6
MARSHALL       PTSUNNY   21   1  41 NW12G20   29.88S WCI   9
MOUNT PLEASANT PTSUNNY   19   1  45 NW14G21   29.86S WCI   6
MUSKEGON       LGT SNOW  19  12  74 N15       29.96S WCI   5
SOUTH HAVEN    PTSUNNY   24   9  53 NW16G24   29.96S HAZE    WCI  10
$$
MIZ016>042-122100-
NORTHERN LOWER MICHIGAN

CITY           SKY/WX    TMP DP  RH WIND       PRES   REMARKS
ALPENA         PTSUNNY   11   3  70 NW18G29   29.82R WCI  -7
BEAVER ISLAND  CLOUDY    15   5  65 NW12G17   29.90F WCI   2
BELLAIRE       CLOUDY    16   7  69 N8        29.89F WCI   5
CADILLAC       CLOUDY    14   5  66 NW9G17    29.82F WCI   2
CHARLEVOIX     LGT SNOW  16   6  64 NW20G29   29.92S WCI  -1
FRANKFORT      LGT SNOW  20  10  67 NW15G22   29.92R WCI   6
GAYLORD        CLOUDY     9  -1  64 NW13G20   29.81S WCI  -7
GRAYLING       CLOUDY    12   2  63 NW17G24   29.84R HAZE    WCI  -5
HARBOR SPRINGS CLOUDY    13   2  60 NW12G17   29.88S WCI  -1
HOUGHTON LAKE  SUNNY     13   0  56 NW23G31   29.83S WCI  -6
MANISTEE       LGT SNOW  18   9  68 NW17G25   29.92S WCI   3
OSCODA         PTSUNNY   13  -3  49 NW22G38   29.81R WCI  -5
PELLSTON       CLOUDY    12   3  67 NW10      29.89S WCI  -1
ROGERS CITY    CLOUDY    11   4  70 NW17G28   29.84S WCI  -6
TRAVERSE CITY  CLOUDY    18   5  57 N12G22    29.89S WCI   5
$$
MIZ007>008-015-122100-
EASTERN UPPER MICHIGAN

CITY           SKY/WX    TMP DP  RH WIND       PRES   REMARKS
KINROSS        LGT SNOW   8   2  76 NW20G25   29.86S WCI -11
MACKINAC ISLAN PTSUNNY   12   0  60 NW18G30   29.86F WCI  -6
NEWBERRY       LGT SNOW  10   8  92 N8        29.88S VSB 1   WCI  -3
S. S. MARIE    SUNNY      8  -5  55 NW10      29.87F WCI  -6
MUNISING         N/A     18  14  84 N18G28    29.92F WCI   2
$$
MIZ004>006-011>014-085-122100-
CENTRAL UPPER MICHIGAN

CITY           SKY/WX    TMP DP  RH WIND       PRES   REMARKS
MANISTIQUE     CLOUDY    13   4  66 N8        29.91S WCI   2
ESCANABA       CLOUDY    17   1  49 NW13      29.95F WCI   4
MENOMINEE      CLOUDY    17   5  59 NW8       29.99  WCI   7
SAWYER-GWINN   FLURRIES  10   3  72 NW12      29.91F WCI  -4
$$
MIZ001>003-009>011-084-122100-
WESTERN UPPER MICHIGAN

CITY           SKY/WX    TMP DP  RH WIND       PRES   REMARKS
IRON MOUNTAIN  CLOUDY    14   3  61 W13       29.92F WCI   0
HOUGHTON       LGT SNOW  11   3  70 W9        29.93F WCI  -2
COPPER HARBOR    N/A     14   6  70 N13       29.97S WCI   0
IRONWOOD       CLOUDY    10   4  76 SW9       29.97F WCI  -3
$$

ABBREVIATIONS USED IN REMARKS
   TC - TEMPERATURE IN CELSIUS
  WCI - WIND CHILL INDEX
   HX - HEAT INDEX
  VSB - VISIBILITY





USA.gov is the U.S. government's official web portal to all federal, state and local government web resources and services.